Spring Lake, NC

2:29 AM EST on February 08, 2016 (GMT -0500)
Pope Field Airport

Weather History for KPOB - February, 2014

Change the Weather History Date:

Monday, February 24, 2014

  Actual Average Record
Temperature  
Mean Temperature 50 °F -  
Max Temperature 63 °F 61 °F 86 °F (1982)
Min Temperature 36 °F 40 °F 19 °F (2009)
Degree Days  
Heating Degree Days 15    
Moisture  
Dew Point 34 °F    
Average Humidity 56    
Maximum Humidity 92    
Minimum Humidity 25    
Precipitation  
Precipitation 0.01 in - - ()
Sea Level Pressure  
Sea Level Pressure 30.04 in    
Wind  
Wind Speed 7 mph (NNW)    
Max Wind Speed 14 mph    
Max Gust Speed 22 mph    
Visibility 10 miles    
Events      
Averages and records for this station are not official NWS values.
T = Trace of Precipitation, MM = Missing Value Source: NWS Daily Summary

Daily Weather History Graph

Daily Weather History Graph

Search for Another Location

Airport or City:

Trip Planner

Search our weather history database for the weather conditions in past years. The results will help you decide how hot, cold, wet, or windy it might be!

Date:

Astronomy

Feb. 24, 2014 Rise Set
Actual Time 6:51 AM EST 6:07 PM EST
Civil Twilight 6:26 AM EST 6:32 PM EST
Nautical Twilight 5:56 AM EST 7:02 PM EST
Astronomical Twilight 5:27 AM EST 7:31 PM EST
Moon 2:42 AM EST (2/24) 1:13 PM EST (2/24)
Length of Visible Light 12h 06m
Length of Day
11h 15m
Waning Crescent, 28% of the Moon is Illuminated
Feb 24
Waning Crescent
Mar 1
New
Mar 8
First Quarter
Mar 16
Full
Mar 23
Last Quarter

Hourly Weather History & Observations

Time (EST) Temp. Windchill Dew Point Humidity Pressure Visibility Wind Dir Wind Speed Gust Speed Precip Events Conditions
12:58 AM 50.9 °F - 45.1 °F 81% 29.90 in 10.0 mi West 6.9 mph - N/A   Clear
1:58 AM 49.5 °F - 45.1 °F 85% 29.89 in 10.0 mi West 5.8 mph - N/A   Clear
2:58 AM 45.3 °F 43.0 °F 43.0 °F 92% 29.91 in 10.0 mi North 4.6 mph - N/A   Clear
3:58 AM 47.5 °F - 44.2 °F 89% 29.93 in 10.0 mi WNW 2.3 mph - N/A   Clear
4:58 AM 44.8 °F 43.3 °F 42.3 °F 91% 29.95 in 10.0 mi West 3.5 mph - N/A   Clear
5:58 AM 43.3 °F - 40.6 °F 90% 29.99 in 10.0 mi WNW 2.3 mph - N/A   Clear
6:58 AM 44.4 °F 41.2 °F 35.4 °F 71% 30.02 in 10.0 mi North 5.8 mph - N/A   Clear
7:58 AM 47.1 °F - 36.7 °F 67% 30.05 in 10.0 mi NE 4.6 mph - N/A   Clear
8:58 AM 52.2 °F - 36.3 °F 55% 30.07 in 10.0 mi NNE 9.2 mph - N/A   Clear
9:58 AM 55.4 °F - 31.1 °F 40% 30.09 in 10.0 mi NNE 12.7 mph - N/A   Clear
10:17 AM 57.2 °F - 30.2 °F 36% 30.08 in 10.0 mi North 12.7 mph 19.6 mph N/A   Clear
10:25 AM 57.2 °F - 32.0 °F 38% 30.08 in 10.0 mi NE 13.8 mph - N/A   Clear
10:58 AM 56.7 °F - 31.6 °F 39% 30.09 in 10.0 mi North 12.7 mph - N/A   Clear
11:58 AM 58.8 °F - 30.9 °F 35% 30.08 in 10.0 mi North 12.7 mph 21.9 mph N/A   Clear
12:28 PM 59.0 °F - 28.4 °F 31% 30.05 in 10.0 mi North 13.8 mph - N/A   Clear
12:58 PM 60.3 °F - 29.8 °F 32% 30.04 in 10.0 mi Variable 6.9 mph - N/A   Clear
1:58 PM 61.3 °F - 28.8 °F 29% 30.02 in 10.0 mi NW 9.2 mph - 0.01 in   Clear
2:58 PM 62.8 °F - 27.9 °F 27% 30.03 in 10.0 mi WNW 6.9 mph - N/A   Clear
3:58 PM 63.0 °F - 27.0 °F 26% 30.03 in 10.0 mi NNW 12.7 mph 16.1 mph N/A   Clear
4:58 PM 62.4 °F - 26.1 °F 25% 30.05 in 10.0 mi NNW 9.2 mph - N/A   Clear
5:58 PM 58.6 °F - 25.3 °F 28% 30.07 in 10.0 mi North 4.6 mph - N/A   Clear
6:58 PM 50.7 °F - 31.5 °F 48% 30.09 in 10.0 mi Variable 1.2 mph - N/A   Clear
7:58 PM 44.6 °F - 32.5 °F 63% 30.10 in 10.0 mi NW 1.2 mph - N/A   Clear
8:58 PM 41.0 °F 38.0 °F 32.4 °F 71% 30.12 in 10.0 mi NNW 4.6 mph - N/A   Clear
9:58 PM 40.3 °F - 32.4 °F 73% 30.15 in 10.0 mi Calm Calm - N/A   Clear
10:58 PM 37.9 °F - 32.7 °F 81% 30.14 in 10.0 mi SSE 1.2 mph - N/A   Clear
11:58 PM 36.9 °F - 31.6 °F 81% 30.15 in 10.0 mi Calm Calm - N/A   Clear